Startpagina
METAR-TAF:

METAR-TAF

Vliegvelden :

Militair vliegvled

Meppen, Duitsland

breedte: 52-43-24N, lengte: 007-19-35E, hoogte: 21 m

Actueel weer

Dit bericht is 58 minuten geleden gemaakt, om 02:20 UTC
Wind 5 kt uit het westen
Temperatuur -1°C
Vochtigheid 93%
Druk 1021 hPa

METAR: ETWM 120220Z AUTO 26005KT //// // ////// M01/M02 Q1021 ///

Tijdstip: 05:18 (03:18 UTC)


TAF: ontbreekt

Waarnemingen en weersverwachtingen van meer dan 4000 vliegvelden (METAR en TAF).

De beschikbare stations zijn de gele en rode punten op de kaart.

Ga met uw muis naar het station om de naam te zien.

Klik dan om waarnemingen en weersverwachtingen te zien.

kaart wijzigen: klik op de groene knoppen met een zwart kruis om in te zoomen, op de groene knop met een streepje om uit te zoomen of op de groene pijlen voor aangrenzende kaarten.


METAR-TAF: